DW7780 Weather Reports


time (UTC)temp
C
wind
direction
speed
KPH
gust
KPH
rain 1hr
cm
rain 24hr
cm
rain mn
cm
humidity
%
barometer
mb
20260901053036 20 0 0.0 0.0 0.00 0.03 0.00 97 1017.5
20260901051532 20 0 0.0 0.0 0.00 0.03 0.00 97 1017.3
20260901050031 20 0 0.0 0.0 0.00 0.03 0.00 97 1017.4
20260901044546 20 0 0.0 0.0 0.00 0.03 0.00 97 1017.4
20260901043034 20 0 0.0 0.0 0.00 0.03 0.00 96 1017.5
20260901041533 20 0 0.0 0.0 0.00 0.03 0.00 96 1017.7
20260901040037 20 0 0.0 0.0 0.00 0.03 0.00 96 1017.9
20260901034537 20 0 0.0 0.0 0.00 0.18 0.03 95 1018.0
20260901033050 20 0 0.0 0.0 0.00 0.18 0.03 95 1018.1
20260901031533 20 0 0.0 0.0 0.00 0.18 0.03 95 1018.2
20260901030035 20 0 0.0 0.0 0.00 0.18 0.03 95 1018.3
20260901024532 20 0 0.0 0.0 0.00 0.18 0.03 94 1018.2
20260901023034 20 0 0.0 0.0 0.00 0.18 0.03 94 1018.4
20260901021541 20 0 0.0 0.0 0.00 0.18 0.03 94 1018.4
20260901020034 20 0 0.0 0.0 0.00 0.18 0.03 93 1018.4
20260901014531 20 0 0.0 0.0 0.00 0.36 0.03 93 1018.4
20260901013045 20 0 0.0 0.0 0.00 0.36 0.03 92 1018.4
20260901011544 21 0 0.0 0.0 0.00 0.36 0.03 92 1018.5
20260901010034 21 0 0.0 0.0 0.00 0.36 0.03 91 1018.5
20260901004534 21 0 0.0 0.0 0.00 0.36 0.03 91 1018.3
20260901003039 21 0 0.0 0.0 0.00 0.36 0.03 91 1018.2
20260901001534 21 0 0.0 0.0 0.00 0.36 0.03 90 1018.1
20260901000035 21 0 0.0 0.0 0.00 0.36 0.03 90 1017.9
20260831234530 22 0 0.0 0.0 0.00 0.36 0.03 89 1017.9
20260831233030 22 0 0.0 0.0 0.00 0.36 0.03 88 1018.1
20260831231531 22 0 0.0 0.0 0.00 0.36 0.03 88 1018.2
20260831230034 22 0 0.0 0.0 0.00 0.36 0.03 87 1018.2
20260831224531 23 0 0.0 0.0 0.00 0.36 0.03 87 1018.3
20260831223037 23 0 0.0 0.0 0.00 0.36 0.03 87 1018.4
20260831221541 23 0 0.0 0.0 0.00 0.36 0.03 86 1018.5
20260831220034 23 0 0.0 0.0 0.00 0.36 0.03 86 1018.5
20260831214534 23 0 0.0 0.0 0.00 0.36 0.03 87 1018.7
20260831213030 23 0 0.0 0.0 0.00 0.36 0.03 86 1018.7
20260831211537 23 0 0.0 0.0 0.00 0.36 0.03 85 1018.6
20260831210031 23 0 0.0 0.0 0.00 0.36 0.03 85 1018.9
20260831204531 23 0 0.0 0.0 0.00 0.36 0.03 85 1018.9
20260831203043 23 0 0.0 0.0 0.00 0.36 0.03 85 1019.1
20260831201543 23 0 0.0 0.0 0.00 0.36 0.03 83 1019.2
20260831200034 23 0 0.0 0.0 0.00 0.36 0.03 84 1019.4
20260831194538 23 0 0.0 0.0 0.00 0.36 0.03 82 1019.5
20260831193031 23 0 0.0 0.0 0.00 0.36 0.03 84 1019.5
20260831191531 23 0 0.0 0.0 0.00 0.36 0.03 84 1019.5
20260831190032 23 0 0.0 0.0 0.00 0.36 0.03 82 1019.7
20260831184535 24 0 0.0 0.0 0.00 0.36 0.03 81 1019.9
20260831183030 24 0 0.0 0.0 0.00 0.36 0.03 78 1019.9
20260831181531 24 0 0.0 0.0 0.00 0.36 0.03 78 1020.0
20260831180034 24 0 0.0 0.0 0.00 0.36 0.03 81 1020.0
20260831174532 24 0 0.0 0.0 0.00 0.36 0.03 79 1020.2
20260831173034 24 0 0.0 0.0 0.00 0.36 0.03 77 1020.0
20260831171532 24 0 0.0 0.0 0.00 0.36 0.03 77 1020.0
20260831170033 23 0 0.0 0.0 0.00 0.36 0.03 80 1020.0
20260831164532 23 0 0.0 0.0 0.00 0.36 0.03 80 1020.1
20260831163036 23 0 0.0 12.9 0.00 0.36 0.03 83 1020.1
20260831161538 23 0 0.0 6.4 0.00 0.36 0.03 83 1020.0
20260831160034 22 0 0.0 0.0 0.00 0.36 0.03 85 1020.2
20260831154558 22 0 0.0 1.6 0.00 0.36 0.03 87 1020.2
20260831153032 22 0 0.0 3.2 0.00 0.36 0.03 89 1020.2
20260831151534 21 0 0.0 0.0 0.00 0.36 0.03 91 1020.3
20260831150038 21 0 0.0 1.6 0.00 0.36 0.03 93 1020.6
20260831144542 21 0 0.0 0.0 0.00 0.36 0.03 94 1020.5
20260831143031 20 0 0.0 0.0 0.00 0.36 0.03 95 1020.6
20260831141537 20 0 0.0 0.0 0.00 0.36 0.03 96 1020.5
20260831140036 20 0 0.0 0.0 0.00 0.36 0.03 97 1020.4
20260831134535 20 0 0.0 0.0 0.00 0.36 0.03 97 1020.4
20260831133104 20 0 0.0 3.2 0.00 0.36 0.03 97 1020.4
20260831131530 19 0 0.0 0.0 0.00 0.36 0.03 98 1020.4
20260831130031 19 0 0.0 0.0 0.00 0.36 0.03 97 1020.4
20260831124531 19 0 0.0 0.0 0.00 0.36 0.03 97 1020.4
20260831123033 19 0 0.0 0.0 0.00 0.36 0.03 98 1020.3
20260831121531 19 0 0.0 0.0 0.00 0.36 0.03 97 1020.3
20260831120038 18 0 0.0 0.0 0.00 0.36 0.03 98 1020.3
20260831114538 18 0 0.0 0.0 0.00 0.36 0.03 97 1019.9
20260831113034 18 0 0.0 0.0 0.00 0.36 0.03 97 1019.8
20260831111530 18 0 0.0 0.0 0.00 0.36 0.03 97 1019.4
20260831110041 18 0 0.0 0.0 0.00 0.36 0.03 97 1019.4
20260831104536 18 0 0.0 0.0 0.00 0.36 0.03 97 1019.6
20260831103034 18 0 0.0 0.0 0.00 0.36 0.03 97 1019.6
20260831101541 18 0 0.0 0.0 0.00 0.36 0.03 97 1019.5
20260831100034 19 0 0.0 0.0 0.00 0.36 0.03 97 1019.2
20260831094534 19 0 0.0 0.0 0.00 0.36 0.03 97 1019.1
20260831093038 19 0 0.0 0.0 0.03 0.36 0.03 97 1019.0
20260831091551 19 0 0.0 0.0 0.03 0.36 0.03 97 1018.8
20260831090034 19 0 0.0 0.0 0.03 0.36 0.03 97 1018.9
20260831084533 19 0 0.0 0.0 0.03 0.36 0.03 97 1018.9
20260831083034 19 0 0.0 0.0 0.00 0.33 0.00 97 1019.0
20260831081538 19 0 0.0 0.0 0.00 0.33 0.00 97 1019.0
20260831080055 20 0 0.0 0.0 0.00 0.33 0.00 97 1019.0
20260831074534 20 0 0.0 0.0 0.00 0.33 0.00 97 1018.9
20260831073057 20 0 0.0 0.0 0.00 0.33 0.00 97 1019.0
20260831071537 20 0 0.0 0.0 0.00 0.33 0.00 97 1019.1
20260831070036 20 0 0.0 0.0 0.00 0.33 0.00 97 1018.9
20260831064534 20 0 0.0 0.0 0.00 0.33 0.00 97 1018.9
20260831063036 20 0 0.0 0.0 0.00 0.33 0.00 97 1018.9
20260831061532 20 0 0.0 0.0 0.00 0.33 0.00 97 1018.9
20260831060031 20 0 0.0 0.0 0.00 0.33 0.00 96 1018.5
20260831054532 20 0 0.0 0.0 0.00 0.33 0.00 97 1018.7